Retour au catalogue

CZ-6A DEB

ActifPO
NORAD 64649·DEBRIS·🇨🇳 China

Lancé Aug 6, 2024 depuis Taiyuan Satellite Launch Center

Loading…

Prochains Passages (prochaines 24 heures)

TLE

FraisSource: Space-Track

Époque: Sep 14, 2026, 10:19 UTC

1 64649U 24140AEP 26257.43021485  .00003920  00000-0  92097-3 0  9993
2 64649  88.9174 252.8594 0054910 356.6772   3.4064 14.53348471102233

Suivez CZ-6A DEB en temps réel avec AllMySat

Download on the App Store